Location: *
(48.7358°N, 0.3111°E)
Time: 02:51:22
(UTC+00:00)

ERBS - Pass Details

Date: 22 October 2019
Orbit: 414 x 428 km, 57.0° (Epoch: 12 November)

Event Time Altitude Azimuth Distance (km) Brightness Sun altitude
Exits shadow 04:19:19 32° 11° (N) 755 3.6 -22.0°
Drops below altitude 10° 04:21:40 10° 46° (NE) 1,518 5.8 -21.6°
Sets 04:23:52 0° 54° (NE) 2,389 7.1 -21.3°
